[[{"header":{"parameterUnit":"m.s-1","parameterCategory":1,"la1":30.2991,"la2":30.254,"lo1":-89.0895,"lo2":-89.0444,"dy":0.0017,"dx":0.0017,"nx":28,"ny":28,"refTime":"2024-06-06T21:00:00:Z","depth":0,"parameterNumber":2,"parameterNumberName":"U-component_of_WINDS"},"data":[0,0,0,0,0,0,0,0,0,0,0,0,0,0,0,0,0,0,0,0,0,0,0,0,0,0,0,0,0,0,0,0,0,0,0,0,0,0,0,0,0,0,0,0,0,0,0,0,0,0,0,0,0,0,0,0,0,0,0.584,0.5842,0,0.6044,0.6046,0.6048,0.6107,0.6106,0.6105,0.6104,0.6318,0.6324,0.6331,0,0,0,0,0,0,0,0,0,0,0,0,0,0.5506,0.5511,0.584,0.5842,0.5845,0.6043,0.6046,0.6049,0.6107,0.6106,0.6105,0.6103,0.6316,0.6323,0.6332,0,0,0,0,0,0,0,0,0,0,0,0,0,0.5674,0.5513,0.5839,0.5898,0.5905,0.6043,0.6046,0.605,0.6108,0.6106,0.6104,0.6103,0.6313,0.6323,0.6333,0.6428,0,0,0.6364,0.6368,0,0,0,0,0,0,0,0,0.5665,0.5686,0.5887,0.5894,0.5902,0.6048,0.6007,0.6177,0.6108,0.6031,0.6104,0.6102,0.623,0.6247,0.6289,0.6438,0.6448,0.6364,0.6371,0.6375,0.6378,0,0,0,0,0,0,0,0.5653,0.5678,0.592,0.5889,0.5899,0.5915,0.5937,0.6039,0.6137,0.6037,0.6042,0.6065,0.6234,0.6279,0.6294,0.6451,0.6364,0.6373,0.6379,0.6383,0.669,0.6692,0,0,0,0,0,0,0.563,0.5668,0.5914,0.5927,0.5777,0.5923,0.5947,0.6003,0.6136,0.6155,0.6066,0.6067,0.6262,0.6282,0.6302,0.6423,0.6375,0.6384,0.639,0.6688,0.669,0.6693,0,0,0,0,0,0,0.5623,0.5652,0.5906,0.5799,0.5832,0.593,0.5992,0.6008,0.6053,0.6158,0.6176,0.6094,0.6262,0.6288,0.6396,0.6431,0.6389,0.6398,0.6685,0.6689,0.6691,0.6666,0,0,0,0,0,0,0.5613,0.5649,0.5685,0.5799,0.5838,0.5995,0.5994,0.6013,0.607,0.6073,0.6189,0.6207,0.6262,0.6381,0.6406,0.6444,0.6406,0.6683,0.6687,0.669,0.6664,0.6667,0.667,0,0,0,0,0,0.5601,0.5671,0.5687,0.5716,0.5885,0.5997,0.6019,0.6081,0.6072,0.611,0.6178,0.6203,0.6423,0.6391,0.6421,0.6462,0.6681,0.6686,0.669,0.6662,0.6667,0.667,0,0,0,0,0,0,0.5561,0.5687,0.5706,0.5814,0.5894,0.6007,0.6057,0.6083,0.6169,0.6168,0.6242,0.6268,0.6372,0.6428,0.6391,0.6562,0.6553,0.6563,0.6521,0.6527,0.653,0.6515,0.6414,0,0,0,0,0,0.5564,0.5643,0.575,0.5835,0.5874,0.5958,0.6009,0.6049,0.6136,0.6171,0.6247,0.6331,0.6419,0.6476,0.6563,0.6672,0.6699,0.6715,0.6718,0.6721,0.6729,0.6792,0.68,0.6708,0.6708,0.6708,0,0,0.5572,0.5651,0.5697,0.5829,0.5896,0.5977,0.5986,0.6073,0.6134,0.6185,0.6291,0.635,0.6449,0.6558,0.661,0.6608,0.676,0.6727,0.6728,0.6735,0.6797,0.6806,0.6813,0.6711,0.6711,0.671,0,0,0.5629,0.5696,0.5775,0.5841,0.5941,0.5997,0.6015,0.6124,0.6164,0.6272,0.6311,0.6387,0.6537,0.6606,0.6661,0.6743,0.677,0.6769,0.6788,0.6847,0.6855,0.6861,0.6891,0.6901,0.6778,0.6778,0.6778,0,0.5628,0.5751,0.5812,0.5896,0.5953,0.6001,0.6081,0.6143,0.6267,0.6307,0.6302,0.6492,0.6562,0.6688,0.6708,0.675,0.6775,0.6757,0.6848,0.6856,0.6863,0.6892,0.6903,0.6777,0.6777,0.6777,0.6777,0,0.5744,0.5829,0.588,0.5997,0.606,0.6142,0.6217,0.6274,0.6308,0.6364,0.6474,0.656,0.6665,0.6697,0.6733,0.6829,0.6825,0.6833,0.6826,0.687,0.6899,0.6911,0.6776,0.6776,0.6776,0.6777,0,0,0.5782,0.5931,0.5949,0.6002,0.6116,0.6183,0.6268,0.6369,0.6416,0.65,0.6574,0.6699,0.6708,0.677,0.6813,0.6865,0.6926,0.6868,0.6872,0.6876,0.7038,0.7031,0.7042,0.6944,0.6946,0.6948,0.7029,0,0.5854,0.6005,0.6062,0.6186,0.6265,0.6311,0.6385,0.6463,0.6518,0.6594,0.6656,0.6743,0.6748,0.6786,0.6839,0.6907,0.6959,0.6902,0.7014,0.7017,0.6988,0.7058,0.7051,0.7124,0.7041,0.7043,0.7044,0,0.5958,0.6041,0.6172,0.6275,0.6311,0.6376,0.6473,0.6545,0.6635,0.6672,0.674,0.678,0.6872,0.6857,0.6985,0.6944,0.6994,0.7034,0.7039,0.7052,0.7034,0.7074,0.7148,0.7159,0.7063,0.7061,0.706,0,0.5973,0.6118,0.6215,0.6259,0.6382,0.6427,0.6481,0.6569,0.6626,0.6711,0.6749,0.6845,0.6897,0.6971,0.7036,0.7019,0.7158,0.7149,0.7192,0.7191,0.722,0.7218,0.7304,0.7251,0.725,0.725,0.725,0,0.6048,0.6127,0.6223,0.6283,0.6373,0.6438,0.6526,0.6583,0.6661,0.6734,0.678,0.6847,0.6929,0.7007,0.7059,0.7157,0.7181,0.7214,0.7227,0.721,0.7206,0.7244,0.7241,0.7253,0.7253,0.7252,0.7251,0,0.6081,0.6148,0.6257,0.6364,0.6393,0.6454,0.6546,0.6607,0.6663,0.6754,0.678,0.6869,0.6963,0.7035,0.7159,0.7194,0.7298,0.7312,0.7267,0.7274,0.7313,0.7309,0.7428,0.7448,0.738,0.738,0.7381,0,0.6124,0.6185,0.6298,0.6349,0.6401,0.6483,0.6541,0.6609,0.6667,0.6774,0.6822,0.6919,0.7001,0.7151,0.7227,0.7322,0.7339,0.7374,0.7354,0.7335,0.734,0.7336,0.7343,0.7377,0.7377,0.7378,0.7378,0,0.6194,0.6224,0.6305,0.6397,0.6464,0.6541,0.6618,0.6658,0.6739,0.6803,0.6899,0.6962,0.7087,0.7184,0.7287,0.7344,0.7375,0.7383,0.7399,0.7383,0.7355,0.7371,0.7275,0.7381,0.7381,0.738,0.738,0.738,0.6234,0.629,0.6378,0.6466,0.6531,0.6602,0.6664,0.6727,0.6808,0.6914,0.6949,0.7049,0.7138,0.7279,0.7337,0.7417,0.7417,0.7439,0.7445,0.7449,0.7448,0.7341,0.7436,0.7436,0.7436,0.7436,0.7436,0,0.6307,0.6365,0.6445,0.6551,0.6621,0.6642,0.6728,0.6786,0.6872,0.6952,0.7031,0.7142,0.7235,0.7319,0.7417,0.7465,0.7482,0.7489,0.7486,0.7499,0.7442,0.7419,0.7473,0.7473,0.7473,0.7473,0.7473,0.7473,0.6353,0.6449,0.649,0.6619,0.6678,0.6774,0.6822,0.6888,0.6952,0.7073,0.715,0.7203,0.7285,0.7389,0.7477,0.7499,0.7534,0.7537,0.7563,0.7508,0.7503,0.7499,0.7478,0.7544,0.7544,0.7614,0.7614,0.7615]},{"header":{"parameterUnit":"m.s-1","parameterCategory":1,"la1":30.2991,"la2":30.254,"lo1":-89.0895,"lo2":-89.0444,"dy":0.0017,"dx":0.0017,"nx":28,"ny":28,"refTime":"2024-06-06T21:00:00:Z","depth":0,"parameterNumber":3,"parameterNumberName":"V-component_of_WINDS"},"data":[0,0,0,0,0,0,0,0,0,0,0,0,0,0,0,0,0,0,0,0,0,0,0,0,0,0,0,0,0,0,0,0,0,0,0,0,0,0,0,0,0,0,0,0,0,0,0,0,0,0,0,0,0,0,0,0,0,0,-0.389,-0.3889,0,-0.3836,-0.3836,-0.3835,-0.3875,-0.3877,-0.3879,-0.388,-0.3824,-0.3821,-0.3818,0,0,0,0,0,0,0,0,0,0,0,0,0,-0.4027,-0.4024,-0.389,-0.3889,-0.3889,-0.3836,-0.3836,-0.3835,-0.3875,-0.3877,-0.3879,-0.3881,-0.3825,-0.3821,-0.3817,0,0,0,0,0,0,0,0,0,0,0,0,0,-0.397,-0.4023,-0.389,-0.3902,-0.3903,-0.3837,-0.3836,-0.3835,-0.3874,-0.3877,-0.388,-0.3882,-0.3826,-0.3822,-0.3817,-0.3735,0,0,-0.3803,-0.38,0,0,0,0,0,0,0,0,-0.3973,-0.3964,-0.3901,-0.3901,-0.3902,-0.3865,-0.3863,-0.3801,-0.3874,-0.3885,-0.388,-0.3883,-0.3835,-0.383,-0.3814,-0.3733,-0.373,-0.3802,-0.3799,-0.3797,-0.3796,0,0,0,0,0,0,0,-0.3977,-0.3967,-0.3869,-0.39,-0.3901,-0.391,-0.3905,-0.3852,-0.3846,-0.3884,-0.3887,-0.388,-0.3836,-0.3819,-0.3813,-0.3729,-0.3802,-0.3798,-0.3795,-0.3793,-0.3579,-0.3577,0,0,0,0,0,0,-0.398,-0.397,-0.3871,-0.3867,-0.3945,-0.3906,-0.39,-0.3874,-0.3847,-0.3845,-0.3878,-0.3882,-0.3825,-0.3819,-0.3811,-0.3714,-0.3797,-0.3793,-0.379,-0.3582,-0.3579,-0.3576,0,0,0,0,0,0,-0.3982,-0.397,-0.3873,-0.3919,-0.3908,-0.3901,-0.3871,-0.3872,-0.3854,-0.3842,-0.3841,-0.3861,-0.3827,-0.3818,-0.3754,-0.3713,-0.3791,-0.3786,-0.3586,-0.3581,-0.3577,-0.3519,0,0,0,0,0,0,-0.3986,-0.3971,-0.394,-0.3918,-0.3905,-0.3816,-0.3869,-0.3869,-0.3846,-0.3851,-0.3826,-0.3824,-0.3829,-0.3761,-0.375,-0.3708,-0.3783,-0.3589,-0.3584,-0.3579,-0.3525,-0.3513,-0.3504,0,0,0,0,0,-0.3991,-0.3925,-0.3938,-0.3926,-0.3866,-0.3814,-0.3806,-0.3812,-0.3843,-0.3811,-0.3804,-0.3825,-0.372,-0.3754,-0.3742,-0.3698,-0.3592,-0.3585,-0.3579,-0.3529,-0.3516,-0.3504,0,0,0,0,0,0,-0.3941,-0.3922,-0.3937,-0.3862,-0.3839,-0.3821,-0.3781,-0.3798,-0.3765,-0.3771,-0.378,-0.3774,-0.3707,-0.3697,-0.3735,-0.3618,-0.3661,-0.3651,-0.3627,-0.3614,-0.3604,-0.3607,-0.3779,0,0,0,0,0,-0.3922,-0.3881,-0.3867,-0.3803,-0.3791,-0.3788,-0.3765,-0.3772,-0.3749,-0.3739,-0.3727,-0.3703,-0.3665,-0.3639,-0.3603,-0.3524,-0.3519,-0.3488,-0.3477,-0.3469,-0.346,-0.3418,-0.3404,-0.3555,-0.3555,-0.3555,0,0,-0.388,-0.3865,-0.3839,-0.3792,-0.3775,-0.3733,-0.3779,-0.3732,-0.3701,-0.3732,-0.3671,-0.3661,-0.3636,-0.3564,-0.3532,-0.3553,-0.3418,-0.3461,-0.3454,-0.345,-0.341,-0.3396,-0.3383,-0.355,-0.3551,-0.3552,0,0,-0.3784,-0.3768,-0.3713,-0.3696,-0.367,-0.3669,-0.3656,-0.3635,-0.363,-0.3569,-0.3592,-0.3555,-0.3489,-0.3469,-0.3451,-0.3349,-0.3367,-0.3337,-0.3281,-0.324,-0.3228,-0.3218,-0.3181,-0.3168,-0.3329,-0.3329,-0.3329,0,-0.3735,-0.3673,-0.3683,-0.3634,-0.3613,-0.3641,-0.3585,-0.3567,-0.3531,-0.3516,-0.354,-0.3458,-0.3442,-0.3367,-0.3342,-0.3327,-0.3312,-0.3339,-0.3229,-0.3219,-0.3209,-0.3174,-0.316,-0.3325,-0.3326,-0.3326,-0.3326,0,-0.3615,-0.3571,-0.353,-0.3495,-0.3469,-0.3417,-0.3419,-0.3392,-0.3402,-0.3398,-0.3337,-0.332,-0.3281,-0.3264,-0.3272,-0.3189,-0.3203,-0.3228,-0.3271,-0.3191,-0.3158,-0.3145,-0.332,-0.3321,-0.3322,-0.3323,0,0,-0.3483,-0.3456,-0.344,-0.3425,-0.3399,-0.3366,-0.3316,-0.3278,-0.3255,-0.323,-0.3187,-0.3131,-0.3155,-0.3134,-0.3141,-0.3105,-0.3025,-0.3135,-0.3134,-0.3114,-0.2932,-0.2913,-0.2897,-0.3038,-0.3036,-0.3034,-0.2934,0,-0.3384,-0.3297,-0.3305,-0.3222,-0.3182,-0.3209,-0.3165,-0.3145,-0.3141,-0.3106,-0.3102,-0.3061,-0.3096,-0.3083,-0.3049,-0.3042,-0.2989,-0.305,-0.2998,-0.2996,-0.3002,-0.288,-0.2858,-0.2765,-0.2922,-0.292,-0.2918,0,-0.3257,-0.3228,-0.3141,-0.3123,-0.3106,-0.3067,-0.3034,-0.3001,-0.2978,-0.2978,-0.2956,-0.2969,-0.2919,-0.2965,-0.2895,-0.2937,-0.2917,-0.291,-0.2907,-0.2901,-0.2951,-0.2869,-0.2736,-0.2721,-0.2898,-0.29,-0.2901,0,-0.3169,-0.3108,-0.3048,-0.3035,-0.3012,-0.2984,-0.2973,-0.2954,-0.2931,-0.2902,-0.2888,-0.2854,-0.2834,-0.2808,-0.2812,-0.2845,-0.2741,-0.2787,-0.2739,-0.2739,-0.2714,-0.2715,-0.2574,-0.2704,-0.2704,-0.2704,-0.2704,0,-0.3057,-0.3002,-0.3008,-0.2971,-0.2911,-0.2922,-0.2862,-0.2855,-0.2838,-0.28,-0.2822,-0.2786,-0.2794,-0.2759,-0.2762,-0.2704,-0.2696,-0.2693,-0.2695,-0.269,-0.269,-0.2676,-0.2682,-0.27,-0.2701,-0.2702,-0.2703,0,-0.2947,-0.2949,-0.2885,-0.287,-0.2865,-0.2821,-0.2808,-0.2773,-0.2772,-0.2723,-0.2713,-0.271,-0.2669,-0.2672,-0.2626,-0.2628,-0.2556,-0.2566,-0.2563,-0.2565,-0.2516,-0.252,-0.2359,-0.2338,-0.2483,-0.2482,-0.248,0,-0.2874,-0.2833,-0.2814,-0.279,-0.2778,-0.2739,-0.2717,-0.2727,-0.2702,-0.2675,-0.2643,-0.2605,-0.2574,-0.2508,-0.2502,-0.2467,-0.2475,-0.2421,-0.247,-0.2467,-0.2473,-0.2474,-0.247,-0.2411,-0.2409,-0.2408,-0.2407,0,-0.2745,-0.2749,-0.2716,-0.2683,-0.2655,-0.263,-0.2607,-0.2586,-0.2594,-0.2565,-0.2524,-0.2501,-0.2454,-0.2416,-0.2383,-0.2372,-0.239,-0.2392,-0.2379,-0.2373,-0.2373,-0.2371,-0.2536,-0.2395,-0.2396,-0.2397,-0.2398,-0.2398,-0.2651,-0.2616,-0.2597,-0.2559,-0.2543,-0.2522,-0.2488,-0.2483,-0.2449,-0.2412,-0.2421,-0.2374,-0.2355,-0.2312,-0.2299,-0.2263,-0.2282,-0.2263,-0.2258,-0.2252,-0.2246,-0.238,-0.2257,-0.2257,-0.2257,-0.2258,-0.2258,0,-0.2522,-0.2512,-0.2477,-0.2445,-0.2415,-0.2437,-0.2413,-0.2386,-0.2346,-0.2326,-0.2296,-0.2249,-0.2212,-0.2204,-0.2169,-0.2142,-0.2149,-0.2132,-0.2133,-0.213,-0.2232,-0.2246,-0.2126,-0.2126,-0.2126,-0.2126,-0.2127,-0.2127,-0.2451,-0.2393,-0.2394,-0.2328,-0.2319,-0.2274,-0.2258,-0.2238,-0.2223,-0.2169,-0.2139,-0.2135,-0.212,-0.2084,-0.2051,-0.205,-0.2035,-0.2014,-0.2015,-0.211,-0.2123,-0.2135,-0.2149,-0.2011,-0.2011,-0.1917,-0.1916,-0.1915]}]]